Regional Weather Roundup
Issued by NWS Charleston, SC

Current Version | Previous Version | Graphics & Text | Print | Product List | Glossary On
Versions: 1 2 3 4 5 6 7 8 9 10 11 12 13 14 15 16 17 18 19 20 21 22 23 24 25 26 27 28 29 30 31 32 33 34 35 36 37 38 39 40 41 42 43 44 45 46 47 48 49 50
000
ASUS42 KCHS 181927
RWRCHS

REGIONAL WEATHER ROUNDUP
NATIONAL WEATHER SERVICE CHARLESTON SC
300 PM EDT WED OCT 18 2017

NOTE: "FAIR" INDICATES FEW OR NO CLOUDS BELOW 12,000 FEET WITH NO
SIGNIFICANT WEATHER AND/OR OBSTRUCTIONS TO VISIBILITY.

NOT ALL STATIONS ARE QUALITY CONTROLLED. USE DATA WITH CAUTION...
ESPECIALLY DEWPOINT OBSERVATIONS.

SCZ027-030-031-034>040-042>050-182000-
...SOUTHEAST SOUTH CAROLINA...

CITY           SKY/WX    TMP DP  RH WIND       PRES   REMARKS
N CHARLESTON   MOSUNNY   74  58  57 NE14      30.25F
WATERFRONT PRK   N/A     71  60  68 N12       30.09F
JOHNS ISLAND   FAIR      75  59  57 N9        30.24S
PINOPOLIS        N/A     68  57  68 NE5       30.19F
MONCKS CORNER  FAIR      72  54  53 N10       30.26F
SUMMERVILLE    FAIR      72  55  56 N9        30.27F
BEAUFORT MCAS  SUNNY     75  59  57 NE12      30.24F
BEAUFORT ARPT  FAIR      73  59  60 NE10      30.23F
HILTON HEAD IS SUNNY     75  59  57 NE9         N/A
WALTERBORO     CLEAR     72  54  53 E9        30.26F
ALLENDALE      NOT AVBL

...SOUTHERN MIDLANDS AND PEE DEE...

CITY           SKY/WX    TMP DP  RH WIND       PRES   REMARKS
GEORGETOWN     FAIR      73  55  53 NE10      30.27F
KINGSTREE      FAIR      72  46  40 NE3       30.28F
ORANGEBURG     SUNNY     71  39  31 NE10      30.28F
BARNWELL         N/A     72  45  37 N3G12     30.27F
AIKEN          FAIR      70  36  28 NE7       30.32S
MANNING        HAZE      72  54  53 MISG      30.28F VSB 1/4
COLUMBIA       SUNNY     71  37  28 E12       30.29F
SUMTER         SUNNY     71  35  26 N7        30.27F
FLORENCE       SUNNY     69  45  41 NE8       30.30F
MYRTLE BEACH   SUNNY     74  57  55 NE10      30.28F
N MYRTLE BEACH NOT AVBL

$$

GAZ063-065-086>088-099>101-113>116-118-119-134>141-150-182000-
...SOUTHEAST GEORGIA...

CITY           SKY/WX    TMP DP  RH WIND       PRES   REMARKS
SAVANNAH ARPT  MOSUNNY   76  58  53 VRB5      30.23F
HUNTER AAF     SUNNY     75  58  57 NE7       30.20F
FORT STEWART   SUNNY     76  56  50 E9        30.20F
STATESBORO     SUNNY     74  46  37 N5        30.24F
SYLVANIA       CLEAR     75  55  50 NE6       30.25F
CLAXTON        FAIR      76  55  46 CALM      30.23F

...CSRA...CENTRAL AND FAR SOUTHEAST GEORGIA...

CITY           SKY/WX    TMP DP  RH WIND       PRES   REMARKS
THOMSON        SUNNY     69  39  33 E6        30.33F
AUGUSTA-BUSH   SUNNY     75  38  26 MISG      30.27F
AUGUSTA-DANIEL SUNNY     73  36  25 E9        30.29F
SWAINSBORO     FAIR      73  39  29 NE9       30.25F
VIDALIA        SUNNY     77  50  38 E6        30.23F
EASTMAN        FAIR      77   7   6 NE9       30.25F
HAZLEHURST     FAIR      77  37  23 E5        30.21F
ALMA           SUNNY     78  57  48 E5        30.20F
WAYCROSS       SUNNY     79  54  42 E12G17    30.19F
JESUP          NOT AVBL
BAXLEY         FAIR      75  54  46 NE9       30.21S
BRUNSWICK      CLOUDY    72  61  68 NE14G20   30.22S
SAINT SIMONS   CLOUDY    73  65  75 NE18G25   30.21F

$$

SCZ027-028-034-036>038-045-046-048>050-GAZ119-141-182000-
...LAKE AND SUPPLEMENTAL COASTAL OBSERVATIONS...

STATION/POSITION TIME  TEMP    WIND        PRES    WAVE   SWELL
                       AIR SEA DIR/SP/G            HT/PER HT/PER/DIR
                 (UTC) (F)     (DEG/KT/KT) (MB)    (FT/S) (FT/S/D)
WINYAH BAY       1830   69      60/ 11     1025.0F
LAKE MURRAY      1850   69      10/  1/  6 1025.1F
ACE BASIN NERRS  1845   75      20/  4     1024.0F
FORT PULASKI     1900   71 75   60/  9/ 11 1024.0
SAPELO ISLAND    1900   72      30/ 13     1023.0

$$

ANZ835-935-AMZ111-154-330-350-352-354-370-450-454-472-182000-
...C-MAN AND BUOY OBSERVATIONS...

STATION/POSITION TIME  TEMP    WIND        PRES    WAVE   SWELL
                       AIR SEA DIR/SP/G            HT/PER HT/PER/DIR
                 (UTC) (F)     (DEG/KT/KT) (MB)    (FT/S) (FT/S/D)
BUOY 41004       1900   72 80   30/ 21/ 27 1022.5
BUOY 41008       1850   72 78   50/ 19/ 23 1022.3F   7/ 8
FOLLY BEACH CMAN 1900   70      70/ 18/ 19 1024.6F
CAPERS NEARSHORE 1908   66 74   60/ 17/ 23 1023.9F
FRIPP NEARSHORE  1908   72      60/ 14/ 17   N/A


STATION/POSITION TIME  TEMP    WIND        PRES    WAVE   SWELL
                       AIR SEA DIR/SP/G            HT/PER HT/PER/DIR
                 (UTC) (F)     (DEG/KT/KT) (MB)    (FT/S) (FT/S/D)
5E ST. MARYS GA  1900      78                N/A     7/ 7   2/110/11
FRYING PAN BUOY  1900   71 77   40/ 21/ 27 1023.6
BUOY 41025       1850   71 82   20/ 21/ 25 1024.5F   7/ 9   3/120/ 9
CAPE LOOKOUT NC  1900   69      30/ 17/ 21 1025.2F
BUOY 41002       1850   74 80   50/ 23/ 29 1019.2F  10/ 8   2/140/11
BUOY 41010       NOT AVBL
ST AUGUSTINE FL  1900   77 79   30/ 20/ 22 1020.8F


$$




USA.gov is the U.S. government's official web portal to all federal, state and local government web resources and services.